Location: Shenandoah County Park
(38.9356°N, 78.4524°W)
Time: 17:49:48
(UTC-04:00)

Explorer 11/Cluster Stage 4 - Pass Details

Date: 25 February 2024
Orbit: 465 x 1219 km, 28.8° (Epoch: 21 April)

Event Time Altitude Azimuth Distance (km) Brightness Sun altitude
Rises 06:32:35 0° 259° (W) 3,689 - -4.7°
Exits shadow 06:33:31 - 255° (WSW) 3,423 9.3 -4.5°
Reaches altitude 10° 06:37:34 10° 228° (SW) 2,519 8.8 -3.7°
Maximum altitude 06:39:22 11° 211° (SSW) 2,337 8.8 -3.4°
Drops below altitude 10° 06:41:05 10° 193° (SSW) 2,350 9.0 -3.0°
Sets 06:45:14 0° 159° (SSE) 3,062 10.1 -2.2°
